Tracking 35237 objects as of 5-Sep-2026
HD Live streaming from Space Station
objects crossing your sky now

STARLINK-31406

Track STARLINK-31406 now!
10-day predictions
STARLINK-31406 is classified as:


NORAD ID: 59017
Int'l Code: 2024-036V
Launch date: February 23, 2024
Source: United States (US)
Launch site: AIR FORCE WESTERN TEST RANGE (AFWTR)
Your satellite tracking list
Your tracking list is empty




NASA's NSSDC Master Catalog

Two Line Element Set (TLE):
1 59017U 24036V   26247.90884309 -.00000326  00000-0  15019-5 0  9992
2 59017  53.1606 308.5615 0001339  78.0106 282.1047 15.34392425143001
Source of the keplerian elements: AFSPC